Chippewa, MI

6:38 AM EST on December 11, 2019 (GMT -0500)
Chippewa County International

Weather History for KCIU - October, 2019

Change the Weather History Date:

Monday, October 7, 2019

  Actual Average Record
Temperature  
Mean Temperature 50 °F -  
Max Temperature 57 °F 53 °F 77 °F (2011)
Min Temperature 42 °F 35 °F 23 °F (1980)
Degree Days  
Heating Degree Days 16    
Moisture  
Dew Point 42 °F    
Average Humidity 75    
Maximum Humidity 96    
Minimum Humidity 53    
Precipitation  
Precipitation 0.00 in - - ()
Sea Level Pressure  
Sea Level Pressure 30.02 in    
Wind  
Wind Speed 7 mph ()    
Max Wind Speed 18 mph    
Max Gust Speed 25 mph    
Visibility 10.0 miles    
Events      
Averages and records for this station are not official NWS values.
T = Trace of Precipitation, MM = Missing Value Source: Averaged Metar Reports

Daily Weather History Graph

Daily Weather History Graph

Search for Another Location

Airport or City:

Astronomy

Oct. 07, 2019 Rise Set
Actual Time 7:43 AM EDT 7:06 PM EDT
Civil Twilight 7:13 AM EDT 7:36 PM EDT
Nautical Twilight 6:39 AM EDT 8:11 PM EDT
Astronomical Twilight 6:04 AM EDT 8:46 PM EDT
Moon 4:51 PM EDT (10/7) 1:11 AM EDT (10/7)
Length of Visible Light 12h 22m
Length of Day
11h 22m
Waxing Gibbous, 69% of the Moon is Illuminated
Oct 7
Waxing Gibbous
Oct 13
Full
Oct 21
Last Quarter
Oct 27
New
Nov 4
First Quarter

Hourly Weather History & Observations

Time (EDT) Temp. Windchill Dew Point Humidity Pressure Visibility Wind Dir Wind Speed Gust Speed Precip Events Conditions
12:56 AM 48.9 °F - 44.1 °F 83% 29.91 in 10.0 mi West 5.8 mph - N/A   Partly Cloudy
1:56 AM 48.9 °F - 43.0 °F 80% 29.91 in 10.0 mi SW 4.6 mph - N/A   Partly Cloudy
2:56 AM 50.0 °F - 43.0 °F 77% 29.90 in 10.0 mi WSW 4.6 mph - N/A   Overcast
3:56 AM 48.9 °F - 43.0 °F 80% 29.89 in 10.0 mi WSW 4.6 mph - N/A   Overcast
4:56 AM 46.9 °F - 42.1 °F 83% 29.91 in 10.0 mi SW 5.8 mph - N/A   Partly Cloudy
5:56 AM 46.9 °F - 41.0 °F 80% 29.93 in 10.0 mi WSW 5.8 mph - N/A   Mostly Cloudy
6:56 AM 45.0 °F 41.8 °F 41.0 °F 86% 29.94 in 10.0 mi WSW 5.8 mph - N/A   Clear
7:56 AM 43.0 °F 40.3 °F 41.0 °F 93% 29.96 in 10.0 mi WSW 4.6 mph - N/A   Clear
8:56 AM 46.0 °F 43.9 °F 42.1 °F 86% 29.97 in 10.0 mi SW 4.6 mph - N/A   Clear
9:56 AM 50.0 °F - 43.0 °F 77% 29.98 in 10.0 mi West 11.5 mph 18.4 mph N/A   Clear
10:56 AM 53.1 °F - 43.0 °F 69% 29.99 in 10.0 mi WNW 15.0 mph - N/A   Clear
11:35 AM 53.6 °F - 42.8 °F 67% 29.99 in 10.0 mi WNW 16.1 mph - N/A   Mostly Cloudy
11:56 AM 54.0 °F - 42.1 °F 64% 30.01 in 10.0 mi West 17.3 mph 21.9 mph N/A   Mostly Cloudy
12:24 PM 55.4 °F - 41.0 °F 58% 30.01 in 10.0 mi West 15.0 mph 23.0 mph N/A   Scattered Clouds
1:56 PM 57.9 °F - 42.1 °F 56% 30.02 in 10.0 mi WNW 18.4 mph 24.2 mph N/A   Mostly Cloudy
2:56 PM 57.0 °F - 39.9 °F 53% 30.03 in 10.0 mi NNW 17.3 mph 25.3 mph N/A   Mostly Cloudy
3:56 PM 54.0 °F - 39.9 °F 59% 30.05 in 10.0 mi NNW 13.8 mph 21.9 mph N/A   Mostly Cloudy
4:56 PM 55.9 °F - 41.0 °F 57% 30.06 in 10.0 mi NW 15.0 mph 19.6 mph N/A   Mostly Cloudy
5:56 PM 55.0 °F - 39.0 °F 55% 30.10 in 10.0 mi NW 9.2 mph - N/A   Partly Cloudy
6:56 PM 52.0 °F - 39.9 °F 63% 30.11 in 10.0 mi North 6.9 mph - N/A   Clear
7:56 PM 48.0 °F - 41.0 °F 77% 30.14 in 10.0 mi Calm Calm - N/A   Clear
8:56 PM 45.0 °F 43.5 °F 41.0 °F 86% 30.16 in 10.0 mi NW 3.5 mph - N/A   Clear
9:56 PM 44.1 °F 41.5 °F 41.0 °F 89% 30.17 in 10.0 mi NW 4.6 mph - N/A   Clear
10:56 PM 42.1 °F 39.2 °F 41.0 °F 96% 30.19 in 10.0 mi WNW 4.6 mph - N/A   Clear
11:56 PM 42.1 °F 40.2 °F 39.9 °F 92% 30.19 in 10.0 mi WSW 3.5 mph - N/A   Clear